CAPE
311 261 695 1126 1282 1388 1325 1009 490 527 642 622 767 802 694 744 825 872 1218 1443 1397 1199 920 886 931 1003 1153 1277 1491 1498 1248 1271 1477 1767 1249 1177 2122 2047 2195 1547 1208 1234 1643
244 242 914 1131 1200 1236 1239 963 542 626 632 609 805 1099 1121 844 759 878 1194 1274 1109 1089 986 1043 986 1001 786 663 846 1262 1121 1201 1267 1444 1864 1153 1842 2088 2096 1812 1614 846 1445
258 307 667 1126 1187 1145 873 889 636 682 680 820 998 1165 1164 1020 983 1076 1154 1052 1045 1111 1290 1505 1166 1089 1457 1204 948 1043 1138 966 1511 1451 1464 2016 636 1440 2078 2011 1486 1182 1271
241 251 395 1079 1208 1208 1104 912 1022 1242 1297 1373 1404 1401 1218 1132 1134 1089 1090 1284 1308 1178 1165 1372 1397 1349 1145 1061 1121 919 883 962 1248 1168 369 796 1331 1052 1179 1736 1696 1684 1611
185 150 547 1056 1150 1130 1134 1114 1161 1217 1333 1402 1382 1281 1191 1221 1297 1262 1098 1174 1104 1142 1190 1125 966 749 694 697 662 745 836 1064 1187 396 441 425 719 1204 1203 1426 1349 1614 1498
16 136 559 1013 1069 984 932 964 1056 1121 1123 1149 1155 1170 1192 1276 1261 1145 1234 1429 1283 952 673 492 339 242 169 156 148 181 491 585 607 1004 352 407 144 715 721 1171 1623 1323 1331
0 529 491 1017 941 904 852 717 703 662 666 708 788 807 832 914 853 960 1149 1247 1105 714 500 439 332 229 248 322 455 578 447 317 283 433 330 638 959 687 777 1026 1501 1142 1065
11 234 235 775 865 868 899 812 918 886 1040 989 760 707 701 825 943 1151 1064 840 673 397 299 362 478 593 681 739 885 1061 1115 1037 312 218 291 454 317 89 228 760 1537 1309 1075
10 0 58 183 634 808 900 916 1166 1106 1229 1194 962 1022 1041 1281 1072 715 551 231 172 272 487 724 907 1051 1126 1214 1277 1308 1497 1504 914 627 378 275 591 310 87 407 716 1379 881
2 2 0 73 165 35 209 964 1593 989 1185 1145 1194 1030 1498 1109 682 389 144 46 161 407 638 899 1215 1248 1360 1499 1588 1759 1778 1768 1280 911 704 369 599 534 260 368 642 732 393
0 98 0 27 39 1 0 227 984 983 786 937 687 844 1028 79 47 117 192 615 880 904 892 959 987 1130 1083 1152 1013 1249 1602 1201 1131 1231 925 833 449 405 260 447 873 898 589
0 27 14 0 0 0 0 482 472 532 488 596 668 624 180 0 105 621 904 723 514 339 830 977 860 746 1111 1036 1220 1009 980 921 1041 1208 1130 765 672 347 99 493 921 844 850
0 0 67 3 0 0 40 816 308 321 245 322 319 207 105 64 416 688 669 1217 1243 1168 1461 1194 1212 1113 1269 1378 1271 1693 1208 1124 1046 951 899 909 821 494 411 564 647 880 947
0 0 56 16 65 35 1 69 113 81 40 13 84 265 373 506 699 1080 1134 1035 1337 963 1415 1845 1369 1268 1483 1663 1348 1524 1400 948 746 571 1116 1006 923 642 640 773 722 862 1063
0 1 3 36 223 139 84 145 111 14 0 5 76 344 261 423 692 949 1034 953 920 1119 1180 1384 1531 961 1604 1490 1553 1474 1384 1346 1059 947 1180 1102 1015 929 884 1207 1021 1061 1125
0 15 37 127 407 575 490 612 589 444 250 176 105 47 319 535 691 803 814 659 806 1015 1026 1251 1665 1190 1319 1215 1509 1107 1102 1173 1212 1209 1225 1567 1164 1066 925 1186 1425 1347 1251
11 18 64 189 455 833 804 888 904 575 343 236 92 283 354 472 820 1046 660 720 791 948 1333 1238 1565 1793 1715 1167 991 790 1186 1201 1202 1511 1582 1502 1432 1527 1366 1178 1448 1462 1138
36 70 87 131 298 791 800 805 639 448 287 151 76 271 600 773 1009 1266 1000 975 1101 1332 1317 1379 1538 1687 1515 1549 980 1313 1488 1413 1363 1296 1461 1361 1891 2026 1801 1316 1291 1325 641
70 247 309 240 252 472 722 670 609 348 251 142 171 335 688 975 1093 1271 1126 1197 1301 1204 1368 1566 1555 1323 1570 1470 1130 1084 1022 1105 1192 1167 1335 1432 1276 1388 1953 553 759 651 579
125 338 600 517 511 534 671 799 473 362 229 196 320 384 567 941 1224 1364 1198 1180 1344 1242 1328 1428 1747 1808 1342 1079 1214 1072 1135 1059 1231 1325 1412 1406 1509 1778 1367 1484 998 698 401
180 385 709 833 1007 985 921 992 721 469 262 268 335 542 743 1013 1087 1244 1180 900 1151 1175 1480 2225 1532 1859 1517 1269 1434 1220 909 1062 1053 1163 1311 1089 1215 1568 1675 1758 1771 1350 635
182 381 769 1050 1445 1598 1340 1224 969 760 623 582 508 519 701 893 1169 1223 1304 1015 792 873 1939 2168 2058 1727 1016 1137 1109 1091 959 534 948 690 932 850 1061 1075 1378 1384 1456 1557 1374
330 478 902 1311 1574 1858 1662 1392 1327 1207 986 862 834 855 941 1116 1448 1564 1634 1476 1467 1277 901 1997 1862 1769 1036 1006 1608 1101 672 690 731 326 1098 647 843 920 985 957 1480 1788 1825
552 620 944 1524 1627 1992 2221 1429 1558 1366 1134 956 1010 1134 1252 1510 1744 1834 1860 1953 1950 1435 1095 1525 2317 1795 1613 1346 1109 1185 1308 1263 369 308 645 867 1053 1068 1004 985 1110 1301 1873
819 736 843 1393 1763 1935 2282 1853 1525 1530 1255 1196 1148 1316 1764 1803 1874 1895 2052 2172 2141 1974 1508 1524 1975 2200 1951 1499 1377 1045 1449 1340 1194 989 269 781 1320 846 826 929 788 744 1324
1252 987 942 1371 1945 2390 2651 2454 1913 1607 1717 1352 1322 1331 1371 1468 1636 2129 2119 2321 2209 2043 1689 1556 2445 2297 1918 1661 1382 1543 1277 1166 957 919 744 681 646 593 891 626 387 468 522
CIN
-32 -71 -35 0 0 -1 0 0 -15 -11 -11 -16 -7 -7 -20 -28 -25 -21 -8 -3 -8 -22 -41 -42 -41 -39 -32 -28 -14 -16 -30 -26 -17 -6 -31 -34 0 0 0 -11 -17 -2 -19
-59 -72 -18 0 0 -3 0 -1 -16 -12 -16 -22 -9 0 -2 -14 -21 -17 -7 -10 -20 -23 -31 -29 -35 -34 -51 -58 -44 -17 -24 -19 -13 -9 -2 -35 -8 0 0 -4 -1 -15 -18
-48 -46 -16 -1 0 -1 -14 -3 -15 -12 -15 -14 -5 0 0 -2 -6 -5 -8 -15 -13 -12 -5 -2 -16 -18 -3 -13 -28 -24 -17 -26 -1 -6 -18 0 -2 -37 -1 0 -4 -12 -16
-35 -44 -13 -1 0 -1 -8 -8 -3 0 0 0 0 0 0 0 0 -2 -7 -3 -2 -4 -3 0 0 -2 -8 -13 -6 -20 -23 -19 -4 -15 -44 -4 -9 -52 -24 -3 -2 0 -1
-34 -45 -15 -6 -2 -4 -3 -7 -1 0 0 0 0 0 0 0 0 0 -2 0 0 0 0 0 -4 -14 -23 -28 -29 -24 -16 -10 -12 -51 -2 -3 -2 -23 -29 -11 -9 -4 -5
-144 -49 -67 -13 -2 -4 -10 -8 -5 -4 -6 -6 -2 0 0 0 0 -1 0 0 0 -3 -14 -28 -49 -69 -91 -91 -91 -82 -34 -30 -44 -8 0 -9 -11 -22 -24 -23 -1 -2 -4
0 -22 -67 -17 -13 -4 -10 -20 -22 -22 -26 -22 -16 -14 -11 -12 -17 -11 0 0 -3 -28 -46 -42 -49 -69 -67 -53 -32 -24 -41 -53 -60 -14 -1 -2 -9 -35 -28 -20 -4 -7 -8
-38 -62 -91 -32 -14 -9 -5 -12 -7 -9 -4 -8 -10 -24 -25 -17 -10 -5 -10 -22 -32 -67 -83 -64 -45 -31 -19 -17 -7 -1 0 -1 -32 -21 -1 -2 -36 -66 -71 -36 -2 -8 -18
-74 -12 -171 -112 -35 -18 -5 -2 0 0 -1 -2 -1 -3 -7 -1 -8 -27 -46 -93 -104 -92 -61 -37 -22 -10 -6 -4 -4 0 -1 0 -5 -2 -1 -1 -35 -47 -103 -61 -32 -5 -18
-2 -177 0 -161 -118 -171 -69 -1 0 0 0 0 0 -3 0 -5 -33 -57 -96 -151 -91 -60 -51 -35 -20 -12 -7 -2 -1 0 0 0 0 -3 -1 0 -43 -53 -69 -87 -36 -24 -35
0 -134 0 -194 -191 -44 0 -107 -9 -7 -14 -7 -16 -11 -7 -60 -64 -73 -61 -31 -21 -37 -43 -41 -30 -18 -20 -24 -44 -28 -2 -1 -1 -2 -9 -16 -55 -59 -77 -57 -28 -19 -22
0 -219 -220 0 0 0 0 -37 -42 -33 -39 -23 -7 -8 -79 0 -32 -8 -13 -29 -43 -75 -45 -28 -32 -49 -36 -10 -22 -58 -41 -17 -19 -21 -13 -35 -47 -69 -116 -65 -31 -21 -18
0 0 -174 -159 0 0 -158 -7 -75 -55 -73 -50 -58 -75 -80 -62 -4 -1 -2 -7 -19 -18 -16 -28 -24 -28 -8 -8 -14 -22 -20 -6 -9 -3 -25 -44 -55 -79 -89 -63 -48 -26 -15
0 0 -221 -269 -221 -212 -15 -175 -127 -138 -169 -193 -151 -98 -53 -26 -2 -2 -2 -2 -2 -1 -9 -5 -1 0 -1 -1 -1 -1 -1 -1 -1 -5 -39 -49 -49 -74 -83 -60 -52 -34 -17
0 -118 -144 -302 -178 -192 -226 -159 -161 -220 0 -85 -163 -77 -88 -31 -1 -2 -1 -1 -2 -5 -7 -5 -6 -3 -4 -9 -1 -2 -2 -2 -5 -2 -24 -36 -50 -60 -72 -59 -46 -30 -18
0 -439 -375 -261 -159 -106 -103 -57 -47 -59 -106 -148 -149 -200 -115 -36 -4 -2 -1 -3 -2 -5 -9 -7 -7 -16 -3 -14 -23 -1 -1 -2 -1 -4 -2 -22 -45 -60 -72 -66 -47 -35 -18
-502 -467 -367 -264 -151 -77 -65 -44 -28 -43 -76 -104 -182 -98 -96 -75 -9 -8 -2 -3 -3 -5 -2 -9 -4 -3 -3 -11 -9 -30 -4 -3 -3 -3 -1 -21 -68 -52 -72 -83 -55 -44 -35
-463 -439 -388 -347 -227 -95 -86 -66 -75 -97 -113 -156 -204 -89 -59 -33 -6 -1 -2 -2 -3 -6 -6 -12 -6 -6 -8 -4 -12 -11 -8 -2 -3 -2 -1 -3 -14 -35 -72 -91 -75 -62 -84
-426 -330 -298 -326 -297 -184 -111 -101 -97 -118 -146 -154 -137 -82 -23 -16 -4 -5 -2 -6 -1 -2 -5 -5 -5 -7 -5 -7 -4 -8 -16 -1 -3 -1 -2 -1 -1 -2 -21 -663 -107 -99 -91
-374 -308 -226 -222 -199 -173 -105 -92 -112 -129 -172 -175 -100 -56 -33 -6 -1 0 -1 -1 -1 -4 -4 -28 -8 -3 -11 -7 -2 -4 -3 -2 -2 -1 -3 -2 -1 -1 -1 -33 -89 -89 -104
-343 -304 -237 -196 -144 -116 -87 -53 -71 -79 -125 -121 -99 -56 -27 -2 -1 -2 -1 -2 -2 0 -3 0 -8 -7 -11 -1 -9 -3 -14 -7 -4 -5 -3 -1 -2 -5 -1 -3 -9 -11 -73
-317 -308 -277 -214 -133 -90 -59 -35 -28 -35 -36 -47 -63 -69 -65 -35 -17 -1 -1 -1 -2 -1 -7 -7 -8 -5 -2 -3 -7 -7 -6 -19 -5 -53 -1 -4 -2 -2 -7 -7 -2 -2 -5
-262 -301 -273 -224 -158 -117 -84 -69 -33 -19 -23 -22 -20 -23 -16 -28 -25 -14 -7 -1 -1 -1 -2 -8 -6 -10 -4 -2 -5 -3 -6 -2 -9 -64 -10 -12 -16 -17 -2 -11 -2 -2 -2
-235 -273 -265 -250 -226 -153 -93 -109 -63 -56 -65 -58 -32 -6 -2 -5 -23 -28 -14 -7 -3 -3 -2 -2 -2 -7 -12 -1 -1 -3 -12 -5 -25 -11 -46 -52 -22 -30 -20 -1 -2 -1 0
-180 -226 -265 -250 -222 -155 -118 -135 -129 -118 -92 -83 -63 -26 -2 -2 -3 -16 -17 -12 -8 -3 -4 -6 -9 -2 -2 -4 -5 -2 -8 -2 -1 -11 -42 -6 -10 -15 -2 -23 -18 -2 -4
-144 -162 -192 -212 -191 -133 -85 -124 -152 -146 -127 -109 -91 -51 -31 -17 -10 -10 -12 -3 -1 -1 -23 -21 0 -5 -6 -10 -6 -8 -2 -5 -2 -10 -28 -9 -5 -6 -12 -8 -3 -10 -6
Wind_Speed
31 33 33 32 32 31 32 33 32 32 32 31 27 18 14 15 14 13 12 11 10 9 10 11 12 13 14 14 15 15 16 16 15 15 15 15 15 14 14 14 13 13 13
33 33 34 32 31 30 32 32 32 32 31 31 29 27 25 21 21 22 22 22 21 16 12 14 14 14 15 15 14 14 14 14 13 12 12 13 13 13 13 13 15 10 11
33 33 34 33 32 31 30 31 31 30 30 28 27 26 24 22 22 22 21 21 20 18 17 16 15 10 16 16 15 13 13 13 12 11 13 13 14 14 13 13 13 11 11
32 34 32 32 32 31 31 30 30 29 29 28 26 25 24 23 22 21 21 19 18 17 17 16 15 16 15 3 13 13 13 12 11 10 14 12 11 13 12 12 12 12 10
31 33 29 31 30 30 30 29 29 28 27 26 25 24 23 22 22 21 20 19 18 17 16 15 15 15 15 13 12 13 13 12 14 15 14 15 12 13 12 11 11 11 11
32 30 30 31 30 29 29 28 27 27 26 25 24 23 22 22 21 20 19 18 17 16 15 15 14 15 15 14 14 14 13 14 15 15 14 14 12 13 12 12 11 10 11
33 24 29 30 30 29 28 27 26 25 25 24 23 22 22 21 20 19 19 18 17 16 15 15 15 15 15 14 14 14 14 14 14 14 13 13 14 14 13 13 11 10 10
30 26 27 27 27 27 27 26 25 24 24 23 22 22 21 20 19 18 18 18 18 16 15 15 15 15 15 14 14 14 14 14 14 14 14 13 13 14 13 12 13 9 11
27 27 27 26 25 25 25 24 24 23 23 22 22 21 20 20 18 16 15 18 18 17 15 15 15 15 15 15 15 15 15 14 15 15 13 13 12 12 12 11 12 13 11
28 27 27 26 25 24 23 23 23 22 22 21 21 20 19 18 17 16 15 17 19 17 16 16 15 16 16 15 15 15 15 14 14 15 14 12 13 12 11 11 11 12 14
28 25 26 25 24 24 22 21 22 21 21 20 20 19 18 18 16 16 17 15 17 19 18 16 16 15 15 15 16 15 14 13 13 13 14 12 12 11 11 11 11 11 12
27 25 25 24 24 23 22 18 21 19 19 19 18 17 18 18 17 17 13 14 15 17 14 16 15 14 14 15 14 13 13 14 13 13 13 14 11 11 12 11 10 10 10
25 24 23 24 23 22 23 17 19 17 17 15 16 16 16 17 15 16 17 16 13 15 10 15 14 13 13 13 13 13 12 12 12 11 11 11 11 11 11 10 10 9 10
25 24 23 23 21 22 20 19 18 17 14 14 13 14 16 12 14 14 14 14 11 14 7 10 14 12 12 11 11 10 9 9 8 8 9 8 8 9 9 9 9 9 12
23 23 22 20 18 22 18 16 18 15 13 14 12 11 14 14 13 10 9 13 16 13 10 7 11 12 11 10 9 10 9 7 12 7 8 7 6 6 7 9 9 9 11
22 22 21 18 17 19 16 17 14 13 11 12 11 10 10 14 14 13 9 11 11 7 7 7 9 11 15 10 16 10 8 7 5 8 4 8 6 6 6 8 9 10 10
24 24 24 22 18 18 17 14 14 12 11 8 8 7 6 8 9 9 12 12 9 17 19 6 5 4 10 3 24 19 9 5 4 4 7 5 7 7 7 7 8 9 10
21 21 21 21 21 20 18 15 14 11 10 6 5 5 5 6 5 6 5 5 8 15 19 25 6 8 3 14 22 17 5 4 4 3 3 10 4 5 6 8 8 8 8
19 18 19 18 18 17 19 18 15 13 10 7 4 3 3 3 3 3 3 3 10 14 14 5 14 10 20 14 14 11 9 3 3 4 3 4 7 11 5 12 9 8 5
20 18 17 17 16 15 15 16 16 15 13 10 9 6 2 2 2 3 3 6 16 10 10 22 20 24 27 24 18 23 11 1 5 3 4 4 3 2 7 6 5 4 4
19 19 16 16 14 14 13 11 13 13 13 12 10 9 7 5 3 2 4 9 7 10 16 17 24 11 15 23 22 22 29 0 9 2 3 3 4 4 3 3 4 4 5
18 17 16 15 14 13 11 10 10 11 12 12 12 11 11 10 8 5 3 2 11 21 13 16 16 20 23 20 20 25 29 27 5 23 5 7 8 8 4 4 4 3 4
17 16 15 15 13 13 12 10 8 9 10 11 12 12 11 11 9 7 4 1 8 13 14 11 12 13 18 22 19 19 24 28 28 21 13 7 9 7 4 3 4 6 7
17 15 16 16 16 13 12 12 10 9 8 9 8 8 6 8 9 8 6 2 1 2 6 10 8 9 8 18 18 12 17 28 30 23 17 6 15 9 5 2 2 4 4
16 17 16 15 16 15 14 14 13 10 10 7 8 6 4 3 3 5 5 5 4 3 3 3 11 10 13 14 18 20 13 23 23 25 30 24 16 13 7 2 1 1 4
16 15 15 13 13 12 12 12 14 14 10 7 6 6 3 4 4 4 4 3 3 3 4 5 2 6 10 13 16 22 21 20 23 17 16 19 27 19 3 3 4 3 3
Wind_Direction
125 128 143 139 125 118 125 127 125 124 123 118 102 75 65 68 63 58 50 37 24 342 335 337 333 331 341 346 358 0 351 354 13 25 27 38 31 29 24 20 28 33 22
124 127 136 130 121 114 124 127 128 130 130 126 123 123 112 95 96 107 108 128 128 85 359 19 9 352 349 10 33 35 24 20 24 51 71 77 55 46 51 29 320 24 22
122 126 133 131 128 121 121 126 129 136 138 136 136 136 130 110 118 125 126 131 152 162 151 137 145 357 328 351 29 54 36 27 44 103 154 151 98 55 52 33 357 13 14
120 128 126 130 128 129 128 127 131 135 141 141 141 143 144 132 126 139 158 148 147 165 177 164 165 199 191 96 112 90 59 56 43 149 173 151 63 52 51 53 56 39 26
119 131 119 130 126 130 134 132 134 139 146 148 148 150 152 155 153 158 182 191 182 169 161 166 174 188 194 158 146 154 156 156 166 168 164 158 89 64 58 59 72 73 72
126 123 123 132 133 133 136 137 139 146 153 155 155 155 155 157 166 180 186 185 175 161 164 172 178 187 190 182 180 178 168 179 190 174 135 115 160 71 72 74 96 57 61
133 108 127 134 138 140 139 141 144 151 160 161 160 159 161 161 163 171 185 185 182 176 178 186 196 199 195 188 186 178 174 172 180 198 144 112 90 74 86 82 71 36 14
125 118 124 131 132 138 143 144 148 154 159 156 156 155 160 163 161 162 173 189 193 184 186 188 192 196 196 190 186 178 177 175 180 170 175 155 90 84 105 113 118 69 359
121 125 127 132 132 136 140 143 147 152 154 149 151 151 154 156 157 155 160 191 193 190 183 185 191 196 194 187 187 187 184 176 187 194 154 157 113 99 114 119 127 142 119
132 128 131 132 135 139 136 144 147 148 153 153 152 155 153 157 165 165 163 182 195 189 185 191 191 196 194 189 186 183 184 182 183 180 167 130 105 113 123 136 143 149 160
141 126 136 134 137 141 137 135 147 146 149 153 156 161 164 171 160 163 165 160 173 194 191 185 176 181 185 184 182 178 171 172 163 171 156 122 111 124 138 145 150 155 160
140 135 135 139 139 140 143 123 147 141 147 148 151 148 165 176 179 204 190 150 174 195 195 205 178 144 167 183 161 155 154 158 155 153 159 105 113 122 144 148 151 155 157
141 138 136 143 140 141 152 122 141 139 141 138 151 153 161 174 154 168 171 175 180 200 165 135 164 126 158 174 143 142 146 139 168 149 78 90 101 126 143 144 150 149 162
145 144 141 144 140 148 146 143 143 145 132 135 130 145 167 137 153 165 164 159 155 211 159 62 69 114 135 160 143 153 149 144 126 118 68 78 91 122 147 150 149 151 167
145 147 148 141 137 157 144 140 153 143 133 141 131 123 152 152 152 134 127 178 210 15 192 154 183 178 96 149 138 157 168 144 186 142 79 97 90 117 143 156 156 154 161
145 148 147 141 140 153 144 152 145 140 134 143 134 128 127 161 161 159 135 165 172 101 145 121 40 27 6 38 200 133 124 162 128 183 137 146 107 110 128 149 156 155 150
149 156 158 155 148 152 154 150 151 148 141 127 133 110 97 127 138 150 173 176 149 340 326 72 98 127 210 134 308 200 56 107 136 86 174 114 123 158 136 139 143 135 121
145 150 155 157 157 159 160 156 157 153 149 122 110 99 100 112 107 32 83 101 20 348 319 276 355 8 75 354 262 10 77 105 128 64 106 196 106 127 131 137 126 120 109
144 140 150 151 156 155 163 167 165 164 155 145 114 88 55 75 85 62 82 71 356 348 350 34 351 5 330 345 347 354 236 47 57 40 76 72 171 202 172 148 98 122 95
145 142 145 147 150 148 147 161 168 169 165 156 156 147 74 76 40 8 9 351 329 348 353 327 330 317 311 319 340 321 352 140 21 56 28 45 71 110 177 62 67 106 121
149 151 144 146 142 142 143 139 151 157 158 163 163 163 156 157 148 28 350 338 342 339 329 335 326 349 347 328 327 328 290 303 191 138 130 92 50 45 55 86 94 104 130
154 153 151 150 146 146 139 140 138 143 153 157 164 167 169 176 176 176 176 345 333 313 339 334 341 327 323 337 334 317 283 270 250 293 1 19 12 11 31 159 174 139 108
160 159 156 157 150 153 154 141 133 147 157 164 172 175 173 176 177 181 188 278 332 328 327 343 347 343 336 327 336 331 313 290 311 327 184 40 20 18 17 78 129 148 157
171 163 164 162 166 159 156 159 155 155 159 167 169 168 160 170 177 181 187 200 261 308 329 334 354 348 354 335 337 342 333 308 305 331 343 88 356 4 21 87 135 155 159
179 176 172 170 171 168 165 169 171 176 179 178 182 184 173 175 176 188 186 186 195 205 227 264 325 335 334 334 330 326 336 322 326 314 303 315 336 340 353 354 217 220 190
185 183 180 178 181 176 174 181 185 186 186 189 186 192 209 201 197 205 202 207 216 217 206 200 231 329 328 326 325 318 320 321 319 324 322 320 305 316 296 278 310 319 301